THOR ABLESTAR DEB, 548

Orbit data source: Space-Track

THOR ABLESTAR DEB, 548 is space debris in LEO originally from a launch on Thu, 29 Jun 1961 UTC launched from the Air Force Eastern Test Range (AFETR). Debris objects in space refer to the collection of defunct objects orbiting the Earth. Examples of debris include non-operational satellites, rocket bodies, and fragments generated from explosions, collisions, or faulty payload assembly.

Loading next visibility...
Identifier
548, 1961-015GH
Orbit
LEO
Country
Flag of USUS
Related business
Manufacturer
Unknown
Mission
Spacecraft
Bus & Motor
Unknown
Mass
Unknown
Launch date (UTC)
1961-06-29 (64 years ago)
Launch vehicle
Unknown
Launch site
Air Force Eastern Test Range (AFETR)
Object type
Payload
Rocket body
Debris
Shape & HBR
Unknown shape, 0.1 m
Radar Cross Section
Small (<0.1 m²)

Expand to show TLE details & history
Last TLE update: 17 hours ago

TLE from 17 hours ago
0 THOR ABLESTAR DEB
1 00548U 61015GH  25342.80513267  .00006034  00000-0  83476-3 0  9992
2 00548  66.6696 123.0201 0105737 262.7843  96.1248 14.74940349375732
Epoch: 2025-12-08T19:19Z
TLE epoch observation values (Epoch: 2025-12-08T19:19:23.462Z)
Latitude
-0.00002°
Longitude
115.37343°
Altitude
656.189 km
Speed
7.525 km/s
True Right ascension
08h 12m 04s
True Declination
0° 00' 00"
Sunlit
Object was in full shadow at epoch
Visualization orbit readout
Latitude
Unknown
Longitude
Unknown
Altitude
Unknown
Speed
Unknown
Apparent Right ascension
Unknown
Apparent Declination
Unknown
Sunlit
N/A
Visualization observer readout
Local Sidereal Time
10:55:09
Azimuth
Unknown
Elevation
Unknown
Doppler factor
Unknown
Orbital elements
Apogee altitude
717.932 km
Perigee altitude
569.438 km
Semi-major axis
7,021.822 km
Eccentricity
0.01057
Inclination
66.6696°
RAAN
123.0201°
Arg. of periapsis
262.7843°
True anomaly
97.32776°
Mean anomaly
96.1248°
Eccentric anomaly
96.72646°
Mean motion
3.68866 °/min
Orbital period
97.6 mins
BSTAR
0.00083476
Loading maneuver chart data...
Computing Atmospheric mass density...

Documentation

Showing up to 5 results
|